STARLINK-34585, 64779

Orbit data source: Space-Track

STARLINK-34585, 64779 is a payload satellite owned by SpaceX/Seattle (US) in LEO that was launched on Tue, 08 Jul 2025 UTC via an FALCON 9 launch vehicle from the Air Force Eastern Test Range (AFETR). Payload-class satellites include a variety of spacecraft equipped with specific instruments for various scientific and technological missions. These include communications satellites like Starlink; space stations such as the ISS; scientific satellites like the Hubble; Earth observation satellites from companies like Planet Labs, Umbra, and HawkEye 360; GPS; miniature CubeSats for education and research; and military/defense satellites.

Loading next visibility...
Identifier
64779, 2025-147AA
Orbit
LEO
Country
Flag of USUS
Related business
Manufacturer
SpaceX/Seattle
Mission
Operational Commercial Communications
Bus & Motor
STARLINK V2MO, Unknown motor
Mass
575 kg wet, ~530 kg dry
Launch date (UTC)
2025-07-08 (1 year ago)
Launch vehicle
FALCON 9
Launch site
Air Force Eastern Test Range (AFETR)
Object type
Payload
Rocket body
Debris
Shape & HBR
Box + 2 Pan, 17.7 m
Radar Cross Section
36.964 m², Large (>1 m²)

Expand to show TLE details & history
Last TLE update: 18 hours ago

TLE from 18 hours ago
0 STARLINK-34585
1 64779U 25147AA  26197.64144951  .00015804  00000-0  47782-3 0  9990
2 64779  53.1613   1.7406 0001230  78.4317 281.6824 15.34405252 58474
Epoch: 2026-07-16T15:23Z
TLE epoch observation values (Epoch: 2026-07-16T15:23:41.237Z)
Latitude
-0°
Longitude
-163.66121°
Altitude
463.419 km
Speed
7.636 km/s
True Right ascension
00h 06m 57s
True Declination
0° 00' 00"
Sunlit
Object was in full shadow at epoch
Visualization orbit readout
Latitude
Unknown
Longitude
Unknown
Altitude
Unknown
Speed
Unknown
Apparent Right ascension
Unknown
Apparent Declination
Unknown
Sunlit
N/A
Visualization observer readout
Local Sidereal Time
22:01:27
Azimuth
Unknown
Elevation
Unknown
Doppler factor
Unknown
Orbital elements
Apogee altitude
463.786 km
Perigee altitude
462.103 km
Semi-major axis
6,841.081 km
Eccentricity
0.00012
Inclination
53.1613°
RAAN
1.7406°
Arg. of periapsis
78.4317°
True anomaly
281.6686°
Mean anomaly
281.6824°
Eccentric anomaly
281.6755°
Mean motion
3.8358 °/min
Orbital period
93.85 mins
BSTAR
0.00047782
Loading maneuver chart data...
Computing Atmospheric mass density...
Loading historical data...
Loading historical data...
Loading historical data...
Loading historical data...
Loading historical data...
Loading historical data...
Loading historical data...

Documentation

Showing up to 5 results
|